Simultaneous Nadir Overpasses (SNOs) Predictions

Prediction of SNOs between AQUA and METOP-B Satellite Orbit:

Table of predicted SNOs for the next 14.0 days since TLE Epoch: 2/22/2013
Index Date (AQUA) Time (AQUA) Lat,Lon (AQUA) SZA (AQUA ) Date (METOP-B) Time (METOP-B) Lat,Lon (METOP-B) SZA (METOP-B ) Distance(km) Time Diff (sec)
1 02/25/2013 00:28:44 73.70, 167.29 82.90 02/25/2013 00:27:48 73.71, 167.33 82.92 1.78 56
2 02/25/2013 01:18:11 -73.77, -25.22 97.04 02/25/2013 01:18:28 -73.78, -25.19 97.04 1.43 17
3 02/25/2013 02:07:50 74.36, 141.06 83.60 02/25/2013 02:08:56 74.38, 143.65 83.50 77.71 66
4 02/27/2013 20:03:01 73.69,-126.26 81.83 02/27/2013 20:02:11 73.68,-126.33 81.84 2.33 50
5 02/27/2013 20:52:28 -73.76, 41.23 98.11 02/27/2013 20:52:51 -73.76, 41.17 98.11 1.96 23
6 03/02/2013 15:37:19 73.70, -59.85 80.77 03/02/2013 15:36:34 73.70, -59.88 80.78 1.06 45
7 03/02/2013 16:26:46 -73.76, 107.66 99.18 03/02/2013 16:27:14 -73.78, 107.64 99.17 2.06 28
8 03/05/2013 11:11:37 73.72, 6.54 79.70 03/05/2013 11:10:57 73.71, 6.56 79.70 0.86 40
9 03/05/2013 12:01:04 -73.78, 174.05 100.25 03/05/2013 12:01:37 -73.80, 174.09 100.24 2.63 33
10 03/08/2013 06:45:53 73.70, 73.02 78.58 03/08/2013 06:45:19 73.72, 72.99 78.61 2.56 34
11 03/08/2013 07:35:20 -73.76,-119.47 101.38 03/08/2013 07:36:00 -73.77,-119.58 101.37 3.50 40




NCC Satellite Simultaneous Nadir Overpasses (SNOs) Prediction Service
